Home   Weather   Kowloon   Past weeks
Flag for Hong Kong

Past Weather in Kowloon, Hong Kong — Yesterday and Last 2 Weeks

Now
79 °F

Scattered clouds.


Feels Like: 81 °F
Forecast: 83 / 76 °F
Wind: 12 mph from Northeast

Location: National Airport

Current Time: Oct 15, 2019 at 7:07:48 am

Latest Report: Oct 15, 2019 at 6:30 am


Visibility: N/A

Pressure: 30.09 "Hg

Humidity: 70%

Dew Point: 68 °F

Location of KowloonLocation

Past Weather in Kowloon — Graph

°F

Kowloon Temperature Yesterday

Maximum temperature yesterday: 84 °F (at 12:30 pm)
Minimum temperature yesterday: 75 °F (at 4:14 am)
Average temperature yesterday: 80 °F

High & Low Weather Summary for the Past Weeks

 TemperatureHumidityPressure
High93 °F (Sep 30, 2:00 pm)100% (Oct 7, 4:00 am)30.09 "Hg (Oct 7, 4:00 am)
Low75 °F (Oct 6, 2:37 pm)32% (Oct 5, 4:00 pm)29.74 "Hg (Sep 30, 2:00 pm)
Average84 °F67%29.92 "Hg
* Reported Sep 30 6:00 am — Oct 15 6:00 am, Kowloon. Weather by CustomWeather, © 2019

Note: Actual official high and low records may vary slightly from our data, if they occured in-between our weather recording intervals... More about our weather records

Advertising

Kowloon Weather History for the Previous 24 Hours

Scroll right to see more
 ConditionsComfort  
Time TempWeatherWind HumidityBarometerVisibility
6:00 am
Tue, Oct 15
77 °FPassing clouds.12 mph74%30.09 "HgN/A
5:30 am77 °FPassing clouds.10 mph74%30.07 "HgN/A
5:00 am77 °FPassing clouds.8 mph74%30.07 "Hg6 mi
4:30 am77 °FPassing clouds.10 mph74%30.07 "HgN/A
4:00 am77 °FPassing clouds.10 mph69%30.07 "HgN/A
3:30 am79 °FPassing clouds.12 mph65%30.07 "HgN/A
3:00 am77 °FPassing clouds.8 mph74%30.07 "HgN/A
2:30 am79 °FPassing clouds.14 mph65%30.07 "HgN/A
2:00 am79 °FPassing clouds.13 mph65%30.07 "HgN/A
1:30 am79 °FPassing clouds.12 mph65%30.07 "HgN/A
1:00 am79 °FPassing clouds.12 mph65%30.09 "Hg6 mi
12:30 am79 °FPassing clouds.12 mph70%30.09 "Hg6 mi
12:00 am79 °FPassing clouds.15 mph70%30.09 "Hg6 mi
11:30 pm
Mon, Oct 14
79 °FPassing clouds.10 mph70%30.09 "Hg6 mi
11:00 pm81 °FPassing clouds.12 mph70%30.09 "Hg5 mi
10:30 pm81 °FPassing clouds.12 mph70%30.09 "Hg5 mi
10:00 pm81 °FPassing clouds.15 mph70%30.09 "Hg5 mi
9:30 pm81 °FPassing clouds.14 mph70%30.09 "Hg5 mi
9:00 pm81 °FPassing clouds.12 mph70%30.09 "Hg5 mi
8:30 pm81 °FPassing clouds.12 mph70%30.07 "Hg5 mi
8:00 pm81 °FPassing clouds.10 mph70%30.07 "Hg5 mi
7:30 pm81 °FPassing clouds.9 mph70%30.07 "Hg5 mi
7:00 pm81 °FPassing clouds.9 mph70%30.04 "Hg5 mi
6:30 pm81 °FPassing clouds.10 mph74%30.04 "Hg5 mi
6:00 pm81 °FPassing clouds.9 mph74%30.04 "Hg4 mi
5:30 pm79 °FScattered clouds.5 mph84%30.04 "Hg4 mi
5:00 pm79 °FScattered clouds.6 mph84%30.04 "Hg4 mi
4:30 pm77 °FWarm.16 mph89%30.04 "Hg1 mi
4:20 pm77 °FWarm.13 mph94%30.04 "Hg2 mi
4:00 pm82 °FScattered clouds.7 mph74%30.01 "Hg6 mi
3:30 pm84 °FScattered clouds.3 mph62%30.01 "HgN/A
3:00 pm82 °FSprinkles. Scattered clouds.12 mph74%30.01 "HgN/A
2:30 pm84 °FScattered clouds.9 mph66%30.01 "HgN/A
2:00 pm84 °FSprinkles. Scattered clouds.10 mph66%30.04 "HgN/A
1:30 pm84 °FScattered clouds.10 mph62%30.04 "HgN/A
1:00 pm84 °FScattered clouds.7 mph66%30.04 "Hg6 mi
12:30 pm84 °FScattered clouds.6 mph66%30.04 "Hg6 mi
12:00 pm82 °FPassing clouds.5 mph70%30.07 "Hg5 mi
11:30 am81 °FPassing clouds.6 mph79%30.07 "Hg4 mi
11:00 am81 °FSprinkles. Passing clouds.6 mph79%30.09 "Hg4 mi
10:30 am81 °FScattered clouds.8 mph79%30.09 "Hg4 mi
10:00 am81 °FScattered clouds.10 mph74%30.09 "Hg4 mi
9:30 am81 °FScattered clouds.12 mph79%30.09 "Hg4 mi
9:00 am79 °FScattered clouds.9 mph79%30.07 "Hg4 mi
8:30 am79 °FPassing clouds.5 mph84%30.07 "Hg5 mi
8:00 am79 °FPassing clouds.5 mph84%30.07 "HgN/A
7:30 am77 °FSprinkles. Passing clouds.6 mph89%30.04 "HgN/A
7:00 am77 °FSprinkles. Passing clouds.6 mph94%30.04 "HgN/A
Weather by CustomWeather, © 2019

See weather overview